Weather in Ugno-Kurilsk

Russia / Sakhalin District     44°01′33″N   145°51′47″E
temp.,
°C
wind,
m/s
gust,
m/s
humid.,
%
clouds,
%
prec.,
mm/h
press.,
hPa
HPBL,
m
3 march, wed
wed323:00−4nnw121894100 11.9 1005882
02:00−6nnw141993100 4.1 10081056
05:00−7nnw141989100 4.8 10131147
08:00−9nnw121790100 0.4 10181104
11:00−10nnw111580100 0.6 10231068
14:00−9nnw10147368 0.0 10271142
17:00−9nnw7126934 0.0 10291075
20:00−12nnw46760 0.0 1032255
4 march, thu
thu423:00−13wnw12800 0.0 1033124
02:00−12ssw23790 0.0 1033123
05:00−10ssw48890 0.0 1033221
08:00−6ssw6128775 0.0 1032607
11:00−2ssw8139086 0.1 1032973
14:00−1ssw9158899 0.1 1029917
17:000ssw8168793 0.1 1028802
20:00−1ssw7158879 0.0 1028668
5 march, fri
fri523:000ssw7168978 0.0 1027597
02:00+1ssw71591100 0.0 1025597
05:00+1ssw71694100 0.0 1022589
08:00+2sw61693100 0.0 1021540
11:00+2ssw61497100 0.0 1020470
14:00+3ssw7159975 0.0 1018415
17:00+3sw51210070 0.0 1018353
20:00+2sw469899 0.0 1018148
6 march, sat
sat623:00+1sw269899 0.0 1016160
02:00+2sw61490100 0.0 1013361
05:00+3sw61596100 1.6 1011463
08:00−4nnw91486100 1.9 1014723
11:00−6nw111677100 1.9 1018944
14:00−7nnw10147467 0.0 10211215
17:00−8nnw7118160 0.0 10231103
20:00−10nnw597694 0.0 1025817
7 march, sun
sun723:00−9nw596947 0.0 1028681
02:00−9wnw487630 0.0 1028554
05:00−10w347820 0.0 1027463
08:00−10sw237616 0.0 1028338
11:00−6wsw126412 0.0 1029897
14:00−5wnw366115 0.0 10281276
17:00−5w246011 0.0 1027937
20:00−7sw23771 0.0 1027156